Time,TemperatureF,DewpointF,PressureIn,WindDirection,WindDirectionDegrees,WindSpeedMPH,WindSpeedGustMPH,Humidity,HourlyPrecipIn,Conditions,Clouds,dailyrainin,SolarRadiationWatts/m^2,SoftwareType,DateUTC
2013-03-24 00:02:00,32.0,19.0,-100.00,ENE,58,2.0,5.0,57,0.00,,,0.00,0.000000,,2013-03-24 05:02:00,
2013-03-24 00:32:00,32.0,20.0,-100.00,ENE,62,4.0,6.0,60,0.00,,,0.00,0.000000,,2013-03-24 05:32:00,
2013-03-24 00:43:00,32.0,20.0,-100.00,ENE,62,4.0,6.0,60,0.00,,,0.00,0.000000,,2013-03-24 05:43:00,
2013-03-24 00:52:00,32.0,20.0,-100.00,ENE,62,4.0,6.0,60,0.00,,,0.00,0.000000,,2013-03-24 05:52:00,
2013-03-24 01:02:00,32.0,20.0,-100.00,ENE,62,4.0,6.0,60,0.00,,,0.00,0.000000,,2013-03-24 06:02:00,
2013-03-24 01:32:00,31.0,20.0,-100.00,NE,48,5.0,8.0,63,0.00,,,0.00,0.000000,,2013-03-24 06:32:00,
2013-03-24 01:42:00,31.0,20.0,-100.00,NE,48,5.0,8.0,63,0.00,,,0.00,0.000000,,2013-03-24 06:42:00,
2013-03-24 01:52:00,31.0,20.0,-100.00,NE,48,5.0,8.0,63,0.00,,,0.00,0.000000,,2013-03-24 06:52:00,
2013-03-24 02:02:00,31.0,20.0,-100.00,NE,48,5.0,8.0,63,0.00,,,0.00,0.000000,,2013-03-24 07:02:00,
2013-03-24 02:32:00,30.0,19.0,-100.00,ENE,69,6.0,10.0,63,0.00,,,0.00,0.000000,,2013-03-24 07:32:00,
2013-03-24 02:42:00,30.0,19.0,-100.00,ENE,69,6.0,10.0,63,0.00,,,0.00,0.000000,,2013-03-24 07:42:00,
2013-03-24 02:52:00,30.0,19.0,-100.00,ENE,69,6.0,10.0,63,0.00,,,0.00,0.000000,,2013-03-24 07:52:00,
2013-03-24 03:03:00,30.0,19.0,-100.00,ENE,69,6.0,10.0,63,0.00,,,0.00,0.000000,,2013-03-24 08:03:00,
2013-03-24 03:32:00,28.0,17.0,-100.00,ENE,65,4.0,10.0,64,0.00,,,0.00,0.000000,,2013-03-24 08:32:00,
2013-03-24 03:42:00,28.0,17.0,-100.00,ENE,65,4.0,10.0,64,0.00,,,0.00,0.000000,,2013-03-24 08:42:00,
2013-03-24 03:52:00,28.0,17.0,-100.00,ENE,65,4.0,10.0,64,0.00,,,0.00,0.000000,,2013-03-24 08:52:00,
2013-03-24 04:02:00,28.0,17.0,-100.00,ENE,65,4.0,10.0,64,0.00,,,0.00,0.000000,,2013-03-24 09:02:00,
2013-03-24 04:33:00,28.0,17.0,-100.00,NE,49,5.0,8.0,64,0.00,,,0.00,0.000000,,2013-03-24 09:33:00,
2013-03-24 04:43:00,28.0,17.0,-100.00,NE,49,5.0,8.0,64,0.00,,,0.00,0.000000,,2013-03-24 09:43:00,
2013-03-24 04:52:00,28.0,17.0,-100.00,NE,49,5.0,8.0,64,0.00,,,0.00,0.000000,,2013-03-24 09:52:00,
2013-03-24 05:03:00,28.0,17.0,-100.00,NE,49,5.0,8.0,64,0.00,,,0.00,0.000000,,2013-03-24 10:03:00,
2013-03-24 05:33:00,27.0,18.0,-100.00,NE,44,6.0,9.0,67,0.00,,,0.00,0.000000,,2013-03-24 10:33:00,
2013-03-24 05:42:00,27.0,18.0,-100.00,NE,44,6.0,9.0,67,0.00,,,0.00,0.000000,,2013-03-24 10:42:00,
2013-03-24 05:52:00,27.0,18.0,-100.00,NE,44,6.0,9.0,67,0.00,,,0.00,0.000000,,2013-03-24 10:52:00,
2013-03-24 06:03:00,27.0,18.0,-100.00,NE,44,6.0,9.0,67,0.00,,,0.00,0.000000,,2013-03-24 11:03:00,
2013-03-24 06:33:00,26.0,17.0,-100.00,NE,46,6.0,10.0,67,0.00,,,0.00,0.000000,,2013-03-24 11:33:00,
2013-03-24 06:42:00,26.0,17.0,-100.00,NE,46,6.0,10.0,67,0.00,,,0.00,0.000000,,2013-03-24 11:42:00,
2013-03-24 06:52:00,26.0,17.0,-100.00,NE,46,6.0,10.0,67,0.00,,,0.00,0.000000,,2013-03-24 11:52:00,
2013-03-24 07:02:00,26.0,17.0,-100.00,NE,46,6.0,10.0,67,0.00,,,0.00,0.000000,,2013-03-24 12:02:00,
2013-03-24 07:32:00,25.0,16.0,-100.00,NNE,32,5.0,10.0,69,0.00,,,-99.99,0.000000,,2013-03-24 12:32:00,
2013-03-24 07:42:00,25.0,16.0,-100.00,NNE,32,5.0,10.0,69,0.00,,,-99.99,0.000000,,2013-03-24 12:42:00,
2013-03-24 07:52:00,25.0,16.0,-100.00,NNE,32,5.0,10.0,69,0.00,,,-99.99,0.000000,,2013-03-24 12:52:00,
2013-03-24 08:02:00,25.0,16.0,-100.00,NNE,32,5.0,10.0,69,0.00,,,-99.99,0.000000,,2013-03-24 13:02:00,
2013-03-24 08:33:00,26.0,17.0,-100.00,NNE,33,5.0,10.0,69,0.00,,,0.00,25.000000,,2013-03-24 13:33:00,
2013-03-24 08:43:00,26.0,17.0,-100.00,NNE,33,5.0,10.0,69,0.00,,,0.00,25.000000,,2013-03-24 13:43:00,
2013-03-24 08:52:00,26.0,17.0,-100.00,NNE,33,5.0,10.0,69,0.00,,,0.00,25.000000,,2013-03-24 13:52:00,
2013-03-24 09:02:00,26.0,17.0,-100.00,NNE,33,5.0,10.0,69,0.00,,,0.00,25.000000,,2013-03-24 14:02:00,
2013-03-24 09:33:00,27.0,17.0,-100.00,NNE,29,8.0,14.0,66,0.00,,,0.00,108.000000,,2013-03-24 14:33:00,
2013-03-24 09:43:00,27.0,17.0,-100.00,NNE,29,8.0,14.0,66,0.00,,,0.00,108.000000,,2013-03-24 14:43:00,
2013-03-24 09:52:00,27.0,17.0,-100.00,NNE,29,8.0,14.0,66,0.00,,,0.00,108.000000,,2013-03-24 14:52:00,
2013-03-24 10:02:00,27.0,17.0,-100.00,NNE,29,8.0,14.0,66,0.00,,,0.00,108.000000,,2013-03-24 15:02:00,
2013-03-24 10:33:00,30.0,19.0,-100.00,NE,51,9.0,19.0,63,0.00,,,0.00,223.000000,,2013-03-24 15:33:00,
2013-03-24 10:43:00,30.0,19.0,-100.00,NE,51,9.0,19.0,63,0.00,,,0.00,223.000000,,2013-03-24 15:43:00,
2013-03-24 10:53:00,30.0,19.0,-100.00,NE,51,9.0,19.0,63,0.00,,,0.00,223.000000,,2013-03-24 15:53:00,
2013-03-24 11:03:00,30.0,19.0,-100.00,NE,51,9.0,19.0,63,0.00,,,0.00,223.000000,,2013-03-24 16:03:00,
2013-03-24 11:33:00,31.0,19.0,-100.00,NE,47,13.0,23.0,60,0.00,,,0.00,301.000000,,2013-03-24 16:33:00,
2013-03-24 11:43:00,31.0,19.0,-100.00,NE,47,13.0,23.0,60,0.00,,,0.00,301.000000,,2013-03-24 16:43:00,
2013-03-24 11:52:00,31.0,19.0,-100.00,NE,47,13.0,23.0,60,0.00,,,0.00,301.000000,,2013-03-24 16:52:00,
2013-03-24 12:02:00,31.0,19.0,-100.00,NE,47,13.0,23.0,60,0.00,,,0.00,301.000000,,2013-03-24 17:02:00,
2013-03-24 12:33:00,31.0,18.0,-100.00,ENE,71,12.0,20.0,57,0.00,,,0.00,304.000000,,2013-03-24 17:33:00,
2013-03-24 12:43:00,31.0,18.0,-100.00,ENE,71,12.0,20.0,57,0.00,,,0.00,304.000000,,2013-03-24 17:43:00,
2013-03-24 12:53:00,31.0,18.0,-100.00,ENE,71,12.0,20.0,57,0.00,,,0.00,304.000000,,2013-03-24 17:53:00,
2013-03-24 13:03:00,31.0,18.0,-100.00,ENE,71,12.0,20.0,57,0.00,,,0.00,304.000000,,2013-03-24 18:03:00,
2013-03-24 13:33:00,32.0,19.0,-100.00,ENE,58,10.0,16.0,58,0.00,,,0.00,201.000000,,2013-03-24 18:33:00,
2013-03-24 13:43:00,32.0,19.0,-100.00,ENE,58,10.0,16.0,58,0.00,,,0.00,201.000000,,2013-03-24 18:43:00,
2013-03-24 13:52:00,32.0,19.0,-100.00,ENE,58,10.0,16.0,58,0.00,,,0.00,201.000000,,2013-03-24 18:52:00,
2013-03-24 14:02:00,32.0,19.0,-100.00,ENE,58,10.0,16.0,58,0.00,,,0.00,201.000000,,2013-03-24 19:02:00,
2013-03-24 14:32:00,32.0,18.0,-100.00,NNE,26,9.0,15.0,55,0.00,,,0.00,240.000000,,2013-03-24 19:32:00,
2013-03-24 14:43:00,32.0,18.0,-100.00,NNE,26,9.0,15.0,55,0.00,,,0.00,240.000000,,2013-03-24 19:43:00,
2013-03-24 14:53:00,32.0,18.0,-100.00,NNE,26,9.0,15.0,55,0.00,,,0.00,240.000000,,2013-03-24 19:53:00,
2013-03-24 15:03:00,32.0,18.0,-100.00,NNE,26,9.0,15.0,55,0.00,,,0.00,240.000000,,2013-03-24 20:03:00,
2013-03-24 15:33:00,34.0,20.0,-100.00,NE,53,8.0,16.0,57,0.00,,,0.00,220.000000,,2013-03-24 20:33:00,
2013-03-24 15:43:00,34.0,20.0,-100.00,NE,53,8.0,16.0,57,0.00,,,0.00,220.000000,,2013-03-24 20:43:00,
2013-03-24 15:53:00,34.0,20.0,-100.00,NE,53,8.0,16.0,57,0.00,,,0.00,220.000000,,2013-03-24 20:53:00,
2013-03-24 16:02:00,34.0,20.0,-100.00,NE,53,8.0,16.0,57,0.00,,,0.00,220.000000,,2013-03-24 21:02:00,
2013-03-24 16:33:00,33.0,19.0,-100.00,North,10,10.0,19.0,57,0.00,,,0.00,212.000000,,2013-03-24 21:33:00,
2013-03-24 16:43:00,33.0,19.0,-100.00,North,10,10.0,19.0,57,0.00,,,0.00,212.000000,,2013-03-24 21:43:00,
2013-03-24 16:53:00,33.0,19.0,-100.00,North,10,10.0,19.0,57,0.00,,,0.00,212.000000,,2013-03-24 21:53:00,
2013-03-24 17:03:00,33.0,19.0,-100.00,North,10,10.0,19.0,57,0.00,,,0.00,212.000000,,2013-03-24 22:03:00,
2013-03-24 17:33:00,32.0,20.0,-100.00,NNE,13,10.0,15.0,61,0.00,,,0.00,104.000000,,2013-03-24 22:33:00,
2013-03-24 17:43:00,32.0,20.0,-100.00,NNE,13,10.0,15.0,61,0.00,,,0.00,104.000000,,2013-03-24 22:43:00,
2013-03-24 17:52:00,32.0,20.0,-100.00,NNE,13,10.0,15.0,61,0.00,,,0.00,104.000000,,2013-03-24 22:52:00,
2013-03-24 18:03:00,32.0,20.0,-100.00,NNE,13,10.0,15.0,61,0.00,,,0.00,104.000000,,2013-03-24 23:03:00,
2013-03-24 18:32:00,32.0,20.0,-100.00,NNE,20,8.0,16.0,61,0.00,,,0.00,73.000000,,2013-03-24 23:32:00,
2013-03-24 18:42:00,32.0,20.0,-100.00,NNE,20,8.0,16.0,61,0.00,,,0.00,73.000000,,2013-03-24 23:42:00,
2013-03-24 18:53:00,32.0,20.0,-100.00,NNE,20,8.0,16.0,61,0.00,,,0.00,73.000000,,2013-03-24 23:53:00,
2013-03-24 19:02:00,32.0,20.0,-100.00,NNE,20,8.0,16.0,61,0.00,,,0.00,73.000000,,2013-03-25 00:02:00,
2013-03-24 19:33:00,31.0,17.0,-100.00,North,10,8.0,19.0,56,0.00,,,0.00,39.000000,,2013-03-25 00:33:00,
2013-03-24 19:43:00,31.0,17.0,-100.00,North,10,8.0,19.0,56,0.00,,,0.00,39.000000,,2013-03-25 00:43:00,
2013-03-24 19:53:00,31.0,17.0,-100.00,North,10,8.0,19.0,56,0.00,,,0.00,39.000000,,2013-03-25 00:53:00,
2013-03-24 20:02:00,31.0,17.0,-100.00,North,10,8.0,19.0,56,0.00,,,0.00,39.000000,,2013-03-25 01:02:00,
2013-03-24 20:32:00,31.0,18.0,-100.00,NNE,23,9.0,16.0,57,0.00,,,0.00,4.000000,,2013-03-25 01:32:00,
2013-03-24 20:42:00,31.0,18.0,-100.00,NNE,23,9.0,16.0,57,0.00,,,0.00,4.000000,,2013-03-25 01:42:00,
2013-03-24 20:52:00,31.0,18.0,-100.00,NNE,23,9.0,16.0,57,0.00,,,0.00,4.000000,,2013-03-25 01:52:00,
2013-03-24 21:02:00,31.0,18.0,-100.00,NNE,23,9.0,16.0,57,0.00,,,0.00,4.000000,,2013-03-25 02:02:00,
2013-03-24 21:33:00,30.0,19.0,-100.00,NNE,17,7.0,14.0,62,0.00,,,0.00,0.000000,,2013-03-25 02:33:00,
2013-03-24 21:43:00,30.0,19.0,-100.00,NNE,17,7.0,14.0,62,0.00,,,0.00,0.000000,,2013-03-25 02:43:00,
2013-03-24 21:52:00,30.0,19.0,-100.00,NNE,17,7.0,14.0,62,0.00,,,0.00,0.000000,,2013-03-25 02:52:00,
2013-03-24 22:02:00,30.0,19.0,-100.00,NNE,17,7.0,14.0,62,0.00,,,0.00,0.000000,,2013-03-25 03:02:00,
2013-03-24 22:34:00,29.0,18.0,-100.00,NNE,14,8.0,14.0,63,0.00,,,0.00,0.000000,,2013-03-25 03:34:00,
2013-03-24 22:43:00,29.0,18.0,-100.00,NNE,14,8.0,14.0,63,0.00,,,0.00,0.000000,,2013-03-25 03:43:00,
2013-03-24 22:53:00,29.0,18.0,-100.00,NNE,14,8.0,14.0,63,0.00,,,0.00,0.000000,,2013-03-25 03:53:00,
2013-03-24 23:02:00,29.0,18.0,-100.00,NNE,14,8.0,14.0,63,0.00,,,0.00,0.000000,,2013-03-25 04:02:00,
2013-03-24 23:33:00,28.0,18.0,-100.00,NNE,15,7.0,15.0,65,0.00,,,0.00,0.000000,,2013-03-25 04:33:00,
2013-03-24 23:43:00,28.0,18.0,-100.00,NNE,15,7.0,15.0,65,0.00,,,0.00,0.000000,,2013-03-25 04:43:00,
2013-03-24 23:52:00,28.0,18.0,-100.00,NNE,15,7.0,15.0,65,0.00,,,0.00,0.000000,,2013-03-25 04:52:00,